Regional Weather Roundup
Issued by NWS

Home | Current Version | Previous Version | Graphics & Text | Print | Product List | Glossary On
Versions: 1 2 3 4 5 6 7 8 9 10 11 12 13 14 15 16 17 18 19 20 21 22 23 24 25 26 27 28 29 30 31 32 33 34 35 36 37 38 39 40 41 42 43 44 45 46 47 48 49 50
366
ASUS43 KLOT 241204
RWRIL

ILLINOIS REGIONAL WEATHER ROUNDUP
NATIONAL WEATHER SERVICE CHICAGO/ROMEOVILLE IL
700 AM CDT SUN SEP 24 2017

NOTE: "FAIR" INDICATES FEW OR NO CLOUDS BELOW 12,000 FEET WITH NO
SIGNIFICANT WEATHER AND/OR OBSTRUCTIONS TO VISIBILITY.

* THESE STATIONS ARE NOT UNDER NWS QUALITY CONTROL. THEY ALSO MAY NOT
  REPORT WEATHER SUCH AS PRECIPITATION OR FOG.

ILZ001-002-007-009-015-016-024-241300-
NORTHWEST ILLINOIS

CITY           SKY/WX    TMP DP  RH WIND       PRES   REMARKS
MOLINE         CLEAR     67  60  78 E5        30.04R
6HR MIN TEMP:  67; 6HR MAX TEMP:  73;

SAVANNA*       CLEAR     63  63  98 E3        30.06R FOG
$$

ILZ003-004-008-010-011-017-018-241300-
NORTH CENTRAL ILLINOIS

CITY           SKY/WX    TMP DP  RH WIND       PRES   REMARKS
ROCKFORD       CLEAR     67  63  87 S5        30.09R
6HR MIN TEMP:  65; 6HR MAX TEMP:  72;

FREEPORT*      CLEAR     61  60  96 CALM      30.09R FOG
ROCHELLE*      CLEAR     62  61  96 CALM      30.09S
DE KALB*       CLEAR     65  63  93 S3        30.10R FOG
$$

ILZ005-006-012>014-019>023-241300-
NORTHEAST ILLINOIS

CITY           SKY/WX    TMP DP  RH WIND       PRES   REMARKS
CHICAGO-OHARE  CLEAR     71  64  78 S3        30.08R
6HR MIN TEMP:  70; 6HR MAX TEMP:  76;

CHICAGO-MIDWAY CLEAR     74  65  73 S5        30.09R
6HR MIN TEMP:  74; 6HR MAX TEMP:  79;

AURORA         CLEAR     67  64  90 SE5       30.09R FOG
6HR MIN TEMP:  67; 6HR MAX TEMP:  73;

LANSING*       CLEAR     65  64  98 CALM      30.11R
JOLIET*        CLEAR     67  65  94 CALM      30.09S
WAUKEGAN       CLEAR     67  67 100 CALM      30.08R
6HR MIN TEMP:  64; 6HR MAX TEMP:  74;

DUPAGE AIRPORT CLEAR     66  65  96 S3        30.08S
6HR MIN TEMP:  64; 6HR MAX TEMP:  72;

KANKAKEE*      CLEAR     64  63  96 SE5       30.11R
WHEELING       CLEAR     67  66  97 CALM      30.09S
6HR MIN TEMP:  65; 6HR MAX TEMP:  74;

MORRIS*        CLEAR     66  64  94 SE3       30.08R FOG
NORTHERLY ISL    N/A     69  66  90 CALM        N/A
$$

LMZ740>746-241300-
SOUTHERN LAKE MICHIGAN

STATION/POSITION SKY/WX   TEMP    WIND        PRES    VSBY  WAVE
                          AIR SEA DIR/SP/G                  HT/PER
                          (F)     (DEG/KT/KT) (MB)    (MI)  (FT/S)
SOUTHERN BUOY              72 71  120/ 10/ 12 1018.7          0
WILMETTE HARBOR            72 71  150/  8/ 10   N/A           1
HARRISON CRIB              73     170/  8/  9   N/A
BURNHAM HARBOR             70                   N/A
CALUMET HARBOR             72     180/  1/  2 1018.3R
BURNS HARBOR               72     150/  7/ 12 1019.6R
MICHIGAN CITY              70     130/ 11/ 12   N/A
MICHIGAN CITY 6N           71 72  160/ 10/ 12   N/A           1
ST. JOSEPH                 71 72  160/ 12/ 14 1019.3R         1/ 2
$$

ILZ025>027-034>036-040-047-049-050-058-095>099-241300-
WEST-CENTRAL ILLINOIS

CITY           SKY/WX    TMP DP  RH WIND       PRES   REMARKS
QUINCY         CLEAR     66  61  84 SE7       30.03R
GALESBURG*     CLEAR     65  60  85 E5        30.06S
MACOMB*        CLEAR     59  58  96 CALM      30.06S
$$

ILZ028>032-037-038-041>044-048-051>054-059>061-241300-
CENTRAL ILLINOIS

CITY           SKY/WX    TMP DP  RH WIND       PRES   REMARKS
DECATUR        CLEAR     59  57  93 E3        30.08R
PEORIA         CLEAR     66  62  87 CALM      30.07R
6HR MIN TEMP:  66; 6HR MAX TEMP:  75;

LACON*         CLEAR     63  61  93 NE6       30.07R
LINCOLN*       CLEAR     63  61  94 CALM      30.07R
SPRINGFIELD    CLEAR     66  61  84 E3        30.06R
6HR MIN TEMP:  63; 6HR MAX TEMP:  74;

TAYLORVILLE    NOT AVBL
$$

ILZ033-039-045-046-055>057-062-063-241300-
EAST-CENTRAL ILLINOIS

CITY           SKY/WX    TMP DP  RH WIND       PRES   REMARKS
CHAMPAIGN      CLEAR     63  60  90 E3        30.10R
MATTOON        PTCLDY    64  64 100 SE3       30.08R
PARIS*         CLEAR     62  62 100 CALM      30.10S FOG
$$

ILZ079-100>102-241300-
SOUTHWEST ILLINOIS

CITY           SKY/WX    TMP DP  RH WIND       PRES   REMARKS
ALTON          CLEAR     63  63 100 CALM      30.06R
BELLEVILLE     CLEAR     64  61  90 CALM      30.05R
CAHOKIA*       CLEAR     65  61  87 CALM      30.05R
SPARTA*        CLEAR     67  64  88 SE3       30.06R
$$

ILZ064>066-069>071-074>076-080>082-084>086-088>090-092>094-241300-
SOUTH-CENTRAL ILLINOIS

CITY           SKY/WX    TMP DP  RH WIND       PRES   REMARKS
CARBONDALE     FOG       64  64 100 CALM      30.05R VSB 3/4
6HR MIN TEMP:  63; 6HR MAX TEMP:  68;

CAIRO*         CLEAR     65  65 100 CALM      30.04S FOG
EFFINGHAM*     CLEAR     62  62 100 CALM      30.09S FOG
MARION         CLEAR     66  66 100 CALM      30.06S
MT. VERNON       N/A     63  62  97 CALM      30.07R
CENTRALIA*     CLEAR     62  61  96 E5        30.06R
SALEM*         CLEAR     67  62  85 CALM      30.07R
METROPOLIS*    LGT RAIN  65  65  97 CALM      30.05R
$$

ILZ067-068-072-073-078-083-087-091-241300-
SOUTHEAST ILLINOIS

CITY           SKY/WX    TMP DP  RH WIND       PRES   REMARKS
LAWRENCEVILLE  CLEAR     65  63  93 N5        30.08R FOG
FLORA*         CLEAR     65  63  95 CALM      30.08R FOG
FAIRFIELD*     CLEAR     65  64  96 CALM      30.06S
HARRISBURG*    CLEAR     63  62  96 CALM      30.06R
ROBINSON*      FOG       58  58 100 CALM      30.09S VSB<1/4
CARMI*         CLEAR     61  61 100 CALM      30.06S FOG
$$

ABBREVIATIONS USED IN REMARKS
   TC - TEMPERATURE IN CELSIUS
  WCI - WIND CHILL INDEX
   HX - HEAT INDEX
  VSB - VISIBILITY
$$





USA.gov is the U.S. government's official web portal to all federal, state and local government web resources and services.